• Join FlightAware (Why Join?)
  • Login
  • US Flag 
01:03PM EST


 

Airport Tracker/Info


-or-


 

Live Flight TrackerFlight Track Log ✈ SWA158 ✈ 01-May-2013 ✈ KSLC - KMDW

Flight Track Log - Related Links

Times and Time Zones

All times are in EDT time to prevent confusion due to time zone crossing. See the SWA158 flight status page for this flight to view local times or setup timezone preferences in your user account.

Time Position Orientation Groundspeed Altitude Reporting Facility
EDT Latitude Longitude Course Direction KTS MPH feet Rate Location/Type
10:55AM 41.0758 -111.0212 75° East  Level FlightAware Approximate
10:56AM 41.1129 -110.8651 72° East  Level FlightAware Approximate
10:57AM 41.1550 -110.7124 73° East  Level FlightAware Approximate
10:58AM 41.1918 -110.5559 73° East  Level FlightAware Approximate
10:59AM 41.2392 -110.4091 72° East  Level FlightAware Approximate
11:00AM 41.2765 -110.2526 72° East  Level FlightAware Approximate
11:01AM 41.3137 -110.0959 72° East  Level FlightAware Approximate
11:02AM 41.3526 -109.9399 71° East  Level FlightAware Approximate
11:02AM 41.1719 -110.2972 82° East 492 566 33,800  Level Denver Center
11:03AM 41.3915 -109.7838 72° East  Level FlightAware Approximate
11:03AM 41.1900 -110.1256 82° East 492 566 34,900  Level Denver Center
11:04AM 41.4102 -109.6205 81° East  Level Estimated
11:04AM 41.2061 -109.9500 83° East 499 574 36,000  Level Denver Center
11:05AM 41.4287 -109.4560 81° East  Level Estimated
11:05AM 41.2267 -109.7450 82° East 501 577 37,000  Level Denver Center
11:06AM 41.4470 -109.2915 81° East  Level Estimated
11:06AM 41.2422 -109.5733 83° East 494 568 37,000  Level Denver Center
11:07AM 41.4651 -109.1269 82° East  Level Estimated
11:07AM 41.2614 -109.3731 83° East 493 567 37,000  Level Denver Center
11:08AM 41.2767 -109.2033 83° East 490 564 37,000  Level Denver Center
11:09AM 41.2947 -109.0050 83° East 494 568 37,000  Level Denver Center
11:10AM 41.3133 -108.8086 83° East 489 563 37,000  Level Salt Lake Center
11:11AM 41.3272 -108.6378 84° East 488 562 37,000  Level Salt Lake Center
11:12AM 41.3444 -108.4372 83° East 492 566 37,000  Level Salt Lake Center
11:14AM 41.3586 -108.2656 84° East 490 564 37,000  Level Salt Lake Center
11:15AM 41.3756 -108.0650 84° East 489 563 37,000  Level Salt Lake Center
11:16AM 41.3889 -107.8936 84° East 490 564 37,000  Level Salt Lake Center
11:17AM 41.4022 -107.7200 84° East 492 566 37,000  Level Salt Lake Center
11:18AM 41.4172 -107.5197 84° East 489 563 37,000  Level Salt Lake Center
11:19AM 41.4306 -107.3469 84° East 492 566 37,000  Level Salt Lake Center
11:20AM 41.4442 -107.1458 85° East 489 563 37,000  Level Salt Lake Center
11:21AM 41.4556 -106.9739 85° East 487 560 37,000  Level Salt Lake Center
11:22AM 41.4719 -106.7731 84° East 488 562 37,000  Level Denver Center
11:23AM 41.4836 -106.6011 85° East 488 562 37,000  Level Denver Center
11:24AM 41.4961 -106.4125 85° East 487 560 37,000  Level Denver Center
11:25AM 41.5089 -106.2108 85° East 489 563 37,000  Level Denver Center
11:26AM 41.5194 -106.0364 85° East 492 566 37,000  Level Denver Center
11:27AM 41.5319 -105.8342 85° East 491 565 37,000  Level Denver Center
11:28AM 41.5422 -105.6597 85° East 494 568 37,000  Level Denver Center
11:29AM 41.5539 -105.4556 86° East 495 570 37,000  Level Denver Center
11:30AM 41.5647 -105.2794 85° East 499 574 37,000  Level Denver Center
11:31AM 41.5758 -105.0764 86° East 494 568 37,000  Level Denver Center
11:32AM 41.5853 -104.9014 86° East 495 570 37,000  Level Denver Center
11:33AM 41.5958 -104.6972 86° East 497 572 37,000  Level Denver Center
11:34AM 41.6047 -104.5217 86° East 496 571 37,000  Level Denver Center
11:35AM 41.6144 -104.3125 86° East 504 580 37,000  Level Denver Center
11:36AM 41.6231 -104.1342 86° East 506 582 37,000  Level Denver Center
11:37AM 41.6325 -103.9239 86° East 510 587 37,000  Level Denver Center
11:38AM 41.6408 -103.7403 86° East 518 596 37,000  Level Denver Center
11:39AM 41.6494 -103.5247 87° East 522 601 37,000  Level Denver Center
11:40AM 41.6569 -103.3453 87° East 513 590 37,000  Level Denver Center
11:41AM 41.6647 -103.1361 87° East 505 581 37,000  Level Denver Center
11:42AM 41.6722 -102.9586 87° East 502 578 37,000  Level Denver Center
11:43AM 41.6778 -102.7542 88° East 496 571 37,000  Level Denver Center
11:45AM 41.6839 -102.5714 87° East 490 564 37,000  Level Denver Center
11:46AM 41.6894 -102.3975 87° East 491 565 37,000  Level Denver Center
11:47AM 41.6975 -102.1942 87° East 489 563 37,000  Level Denver Center
11:48AM 41.7019 -102.0192 88° East 492 566 37,000  Level Denver Center
11:49AM 41.7075 -101.8167 88° East 489 563 37,000  Level Denver Center
11:50AM 41.7106 -101.6433 89° East 487 560 37,000  Level Denver Center
11:51AM 41.7153 -101.4683 88° East 489 563 37,000  Level Denver Center
11:52AM 41.7194 -101.2631 88° East 491 565 37,000  Level Denver Center
11:53AM 41.7228 -101.0878 88° East 492 566 37,000  Level Denver Center
11:54AM 41.7281 -100.8806 88° East 496 571 37,000  Level Denver Center
11:55AM 41.7303 -100.7036 89° East 495 570 37,100 420 Climbing Denver Center
11:56AM 41.7336 -100.4906 89° East 507 583 37,900 840 Climbing Denver Center
11:57AM 41.7361 -100.3064 89° East 514 592 38,900 480 Climbing Denver Center
11:58AM 41.7383 -100.0611 89° East 516 594 39,000  Climbing Denver Center
11:59AM 41.7406 -99.8183 89° East 510 587 39,000  Level Denver Center
12:00PM 41.7425 -99.6339 89° East 503 579 39,000  Level Denver Center
12:01PM 41.7433 -99.4464 90° East 501 577 39,000  Level Denver Center
12:03PM 41.7447 -99.2592 89° East 500 575 39,000  Level Denver Center
12:04PM 41.7447 -99.0764 90° East 492 566 39,000  Level Denver Center
12:04PM 41.7453 -99.0050 89° East 491 565 39,000  Level Minneapolis Center
12:05PM 41.7453 -98.8250 90° East 484 557 39,000  Level Minneapolis Center
12:06PM 41.7461 -98.6069 90° East 484 557 39,000  Level Minneapolis Center
12:07PM 41.7450 -98.4272 90° East 482 555 39,000  Level Minneapolis Center
12:08PM 41.7436 -98.2467 91° East 481 554 39,000  Level Minneapolis Center
12:09PM 41.7422 -98.0483 90° East 480 552 39,000  Level Minneapolis Center
12:10PM 41.7414 -97.8692 90° East 480 552 39,000  Level Minneapolis Center
12:11PM 41.7394 -97.6908 91° East 480 552 39,000  Level Minneapolis Center
12:12PM 41.7381 -97.5119 91° East 481 554 39,000  Level Minneapolis Center
12:13PM 41.7361 -97.3336 91° East 480 552 39,000  Level Minneapolis Center
12:15PM 41.7344 -97.1561 91° East 478 550 39,000  Level Minneapolis Center
12:16PM 41.7300 -96.9453 92° East 474 545 39,000  Level Minneapolis Center
12:17PM 41.7278 -96.8058 91° East 468 539 39,000  Level Minneapolis Center
12:18PM 41.7231 -96.5644 91° East 463 533 39,000  Level Minneapolis Center
12:19PM 41.7208 -96.3936 91° East 460 529 39,000  Level Minneapolis Center
12:20PM 41.7156 -96.1867 92° East 460 529 39,000  Level Minneapolis Center
12:21PM 41.7117 -96.0150 92° East 458 527 39,000  Level Minneapolis Center
12:22PM 41.7081 -95.8775 92° East 458 527 39,000  Level Minneapolis Center
12:23PM 41.7019 -95.6733 92° East 455 524 39,000  Level Minneapolis Center
12:24PM 41.6986 -95.5383 92° East 452 520 39,000  Level Minneapolis Center
12:25PM 41.6925 -95.3356 92° East 453 521 39,000  Level Minneapolis Center
12:26PM 41.6878 -95.1661 92° East 455 524 39,000  Level Minneapolis Center
12:27PM 41.6814 -94.9642 92° East 453 521 39,000  Level Minneapolis Center
12:28PM 41.6725 -94.7628 93° East 452 520 39,000  Level Minneapolis Center
12:29PM 41.6669 -94.5978 93° East 447 514 39,000  Level Minneapolis Center
12:30PM 41.6617 -94.4653 93° East 446 513 39,000  Level Minneapolis Center
12:31PM 41.6544 -94.2664 93° East 446 513 39,000  Level Minneapolis Center
12:32PM 41.6467 -94.1106 94° East 445 512 39,000  Level Minneapolis Center
12:33PM 41.6403 -93.9458 93° East 446 513 39,000  Level Minneapolis Center
12:34PM 41.6331 -93.7819 93° East 445 512 39,000  Level Minneapolis Center
12:36PM 41.6247 -93.5850 93° East 445 512 39,000  Level Minneapolis Center
12:37PM 41.6183 -93.4206 93° East 445 512 39,000  Level Minneapolis Center
12:38PM 41.6103 -93.2581 94° East 443 510 39,000  Level Minneapolis Center
12:39PM 41.6039 -93.1278 94° East 442 509 39,000 -300 Level Minneapolis Center
12:40PM 41.5944 -92.9339 94° East 440 506 38,500 -780 Descending Minneapolis Center
12:41PM 41.5808 -92.7394 95° East 440 506 37,400 -1,020 Descending Minneapolis Center
12:42PM 41.5586 -92.5631 100° East 441 507 36,400 -960 Descending Chicago Center
12:43PM 41.5394 -92.4039 99° East 440 506 35,400 -720 Descending Chicago Center
12:44PM 41.5197 -92.2458 99° East 438 504 35,000 -240 Descending Chicago Center
12:45PM 41.5006 -92.0869 99° East 438 504 35,000 -120 Level Chicago Center
12:46PM 41.4764 -91.8997 100° East 434 499 34,800 -600 Descending Chicago Center
12:47PM 41.4567 -91.7419 99° East 437 503 33,800 -900 Descending Chicago Center
12:48PM 41.4364 -91.5831 100° East 439 505 33,000 -900 Descending Chicago Center
12:49PM 41.4158 -91.4297 100° East 431 496 32,000 -1,020 Descending Chicago Center
12:50PM 41.3925 -91.2536 100° East 418 481 31,000 -960 Descending Chicago Center
12:51PM 41.3731 -91.1003 100° East 418 481 30,100 -1,500 Descending Chicago Center
12:52PM 41.3517 -90.9472 100° East 420 483 27,900 -2,220 Descending Chicago Center
12:53PM 41.3319 -90.7933 100° East 421 484 25,600 -2,280 Descending Chicago Center
12:54PM 41.3108 -90.6436 101° East 412 474 23,300 -2,220 Descending Chicago Center
12:55PM 41.2664 -90.5142 115° Southeast 392 451 21,100 -2,100 Descending Chicago Center
12:56PM 41.2189 -90.3561 112° Southeast 386 444 19,000 -1,020 Descending Chicago Center
12:57PM 41.2081 -90.2147 96° East 385 443 19,000  Level Chicago Center
12:58PM 41.1989 -90.0714 95° East 388 447 19,000  Level Chicago Center
12:59PM 41.1869 -89.9292 96° East 387 445 19,000 -1,080 Level Chicago Center
01:01PM 41.1771 -89.7459 102° East  Level FlightAware Approximate
01:01PM 41.1650 -89.6533 102° East 373 429 15,800  Level Chicago Center
01:02PM 41.1639 -89.5206 91° East 360 414 14,300 -1,800 Descending Chicago Center
01:03PM 41.1731 -89.3950 84° East 344 396 12,200 -2,100 Descending Chicago Center
01:05PM 41.1842 -89.2464 84° East 338 389 10,000 -1,140 Descending Chicago Center
01:06PM 41.1911 -89.1358 85° East 331 381 9,900 -60 Descending Chicago Center
01:07PM 41.2311 -89.0250 64° Northeast 336 387 9,900  Level Chicago Center
01:08PM 41.2864 -88.9003 59° Northeast 324 373 9,900  Level Chicago Center
01:09PM 41.3317 -88.8011 59° Northeast 316 364 10,000 -780 Climbing Chicago Center
01:10PM 41.3739 -88.7072 59° Northeast 300 345 8,300 -1,500 Descending Chicago Center
01:11PM 41.4153 -88.6136 59° Northeast 296 341 6,900 -1,140 Descending Chicago Center
01:12PM 41.4553 -88.5239 59° Northeast 287 330 6,000 -480 Descending Chicago Center
01:13PM 41.4839 -88.4314 68° East 277 319 6,000  Level Chicago Center
01:14PM 41.5056 -88.3142 76° East 274 315 6,000  Level Chicago Center
01:15PM 41.5247 -88.2136 76° East 277 319 6,000  Level Chicago Center
01:16PM 41.5364 -88.1119 81° East 277 319 6,000  Level Chicago Center
01:17PM 41.5428 -88.0097 85° East 274 315 6,000 -480 Level Chicago Center
01:18PM 41.5483 -87.9092 86° East 272 313 5,100 -540 Descending Chicago Center
01:19PM 41.5675 -87.8147 75° East 266 306 5,000 -300 Descending Chicago Center
01:20PM 41.5847 -87.7275 75° East 256 295 4,500 -900 Descending Chicago Center
01:21PM 41.6056 -87.6283 74° East 242 278 3,200 -720 Descending Chicago Center
01:22PM 41.6564 -87.5886 30° Northeast 239 275 3,100 -240 Descending Chicago Center
01:23PM 41.6986 -87.6314 323° Northwest 209 241 2,800 -420 Descending Chicago Center
01:24PM 41.7167 -87.6667 304° West 184 212 2,500 -540 Descending Chicago TRACON
01:25PM 41.7667 -87.6833 346° North 184 212 2,000 -480 Descending Chicago TRACON
01:26PM 41.8167 -87.7000 346° North 163 188 1,600 -420 Descending Chicago TRACON